This is the latest recevied weather packets stored in our database for station/object KI4BIY. If no packets are shown the sender has not sent any weather packets the latest 10 day(s).
| Time | Temp. | Humidity | Pressure | Rain* | Wind** | Luminosity | Snow |
|---|---|---|---|---|---|---|---|
| 1778296757 | 17.22° C | 75% | 1009.8 hPa | 0 mm | - | 0 W/m² | - |
| 1778296454 | 17.22° C | 75% | 1010.1 hPa | 0 mm | - | 0 W/m² | - |
| 1778296151 | 17.22° C | 75% | 1009.7 hPa | 0 mm | - | 0 W/m² | - |
| 1778295849 | 17.22° C | 74% | 1009.7 hPa | 0 mm | - | 0 W/m² | - |
| 1778295546 | 17.78° C | 73% | 1009.8 hPa | 0 mm | - | 0 W/m² | - |
| 1778295242 | 17.22° C | 73% | 1010 hPa | 0 mm | - | 0 W/m² | - |
| 1778294937 | 17.22° C | 73% | 1010.2 hPa | 0 mm | - | 0 W/m² | - |
| 1778294633 | 17.22° C | 73% | 1010.1 hPa | 0 mm | - | 0 W/m² | - |
| 1778294331 | 16.67° C | 74% | 1009.9 hPa | 0 mm | - | 0 W/m² | - |
| 1778294028 | 16.67° C | 75% | 1009.8 hPa | 0 mm | - | 0 W/m² | - |
| 1778293724 | 17.22° C | 73% | 1010.1 hPa | 0 mm | - | 0 W/m² | - |
| 1778293421 | 17.22° C | 74% | 1009.9 hPa | 0 mm | - | 0 W/m² | - |
| 1778293118 | 17.78° C | 74% | 1009.8 hPa | 0 mm | - | 0 W/m² | - |
| 1778292815 | 17.78° C | 73% | 1010 hPa | 0 mm | - | 0 W/m² | - |
| 1778292513 | 18.33° C | 70% | 1009.9 hPa | 0 mm | - | 0 W/m² | - |
| 1778292211 | 18.33° C | 67% | 1009.7 hPa | 0 mm | - | 0 W/m² | - |
| 1778291908 | 18.33° C | 68% | 1009.7 hPa | 0 mm | - | 0 W/m² | - |
| 1778291606 | 18.89° C | 66% | 1009.8 hPa | 0 mm | - | 0 W/m² | - |
| 1778291303 | 18.89° C | 66% | 1009.6 hPa | 0 mm | - | 0 W/m² | - |
| 1778291000 | 18.89° C | 65% | 1009.5 hPa | 0 mm | - | 0 W/m² | - |
| 1778290696 | 18.89° C | 65% | 1009.6 hPa | 0 mm | - | 0 W/m² | - |
| 1778290393 | 18.89° C | 64% | 1009.4 hPa | 0 mm | - | 0 W/m² | - |
| 1778290089 | 18.89° C | 64% | 1009.4 hPa | 0 mm | - | 0 W/m² | - |
| 1778289786 | 19.44° C | 63% | 1009.5 hPa | 0 mm | - | 0 W/m² | - |
| 1778289483 | 19.44° C | 62% | 1009.4 hPa | 0 mm | - | 0 W/m² | - |
* Rain latest hour (hover to see other rain measurements)
** Current wind speed in m/s (hover to see current wind gust speed)